Location: Canicattì
(37.3589°N, 13.8504°E)
Time: 02:20:07
(UTC+01:00)

ISS - Visible Passes

Search period start: 29 January 2022 00:00
Search period end: 08 February 2022 00:00
Orbit: 413 x 422 km, 51.6° (Epoch: 28 January)

Date Brightness Start Highest point End Pass type
(mag) Time Alt. Az. Time Alt. Az. Time Alt. Az.
31 Jan -1.5 19:09:11 10° NNW 19:10:20 16° N 19:10:20 16° N visible
01 Feb -1.8 18:21:27 10° NNW 18:23:33 15° NNE 18:24:29 14° NE visible
01 Feb -0.4 19:57:20 10° NW 19:57:26 11° NW 19:57:26 11° NW visible
02 Feb -2.9 19:09:15 10° NW 19:11:43 40° NNW 19:11:43 40° NNW visible
03 Feb -2.9 18:21:17 10° NNW 18:24:18 31° NNE 18:26:10 18° E visible
03 Feb -0.7 19:58:11 10° WNW 19:59:08 16° W 19:59:08 16° W visible
04 Feb -2.8 19:09:41 10° WNW 19:12:53 45° SW 19:13:48 35° S visible
05 Feb -3.8 18:21:25 10° NW 18:24:46 88° SSW 18:28:06 10° SE visible
06 Feb -0.7 19:11:06 10° W 19:13:00 14° SW 19:14:53 10° SSW visible
07 Feb -1.4 18:22:07 10° WNW 18:24:57 26° SW 18:27:46 10° S visible
